Terminal Aerodrome Forecast
Issued by NWS

Home | Current Version | Previous Version | Text Only | Print | Product List | Glossary On
Versions: 1 2 3 4 5 6 7 8 9 10 11 12 13 14 15 16 17 18 19 20 21 22 23 24 25 26 27 28 29 30 31 32 33 34 35 36 37 38 39 40 41 42 43 44 45 46 47 48 49 50
000
FTAK31 PANC 260034 AAA
TAFAIL
TAF AMD
PAIL 260034Z 2601/2624 21010KT P6SM VCSH SCT035 BKN050
      TEMPO 2601/2603 3SM -SHSN BR BKN025
     FM260300 18015G25KT P6SM -SHSNRA OVC025
     FM260600 24010G20KT P6SM VCSH FEW025 SCT035 BKN045
     FM261400 14008KT P6SM SCT035 BKN045=

USA.gov is the U.S. government's official web portal to all federal, state and local government web resources and services.